Time,TemperatureF,DewpointF,PressureIn,WindDirection,WindDirectionDegrees,WindSpeedMPH,WindSpeedGustMPH,Humidity,HourlyPrecipIn,Conditions,Clouds,dailyrainin,SoftwareType,DateUTC
2013-08-30 00:03:00,79.0,74.8,28.91,SSW,202,3.5,3.5,87,0.00,CLR,,0.00,WeatherDisplay:10.37,2013-08-30 05:03:00,
2013-08-30 00:08:00,79.0,74.8,28.91,SSE,158,3.5,3.5,87,0.00,CLR,,0.00,WeatherDisplay:10.37,2013-08-30 05:08:00,
2013-08-30 00:13:00,78.8,74.6,28.91,South,180,2.3,2.3,87,0.00,CLR,,0.00,WeatherDisplay:10.37,2013-08-30 05:13:00,
2013-08-30 00:18:00,78.8,74.9,28.91,SSW,202,2.3,2.3,88,0.00,CLR,,0.00,WeatherDisplay:10.37,2013-08-30 05:18:00,
2013-08-30 00:23:00,78.8,74.9,28.91,SSW,202,3.5,3.5,88,0.00,CLR,,0.00,WeatherDisplay:10.37,2013-08-30 05:23:00,
2013-08-30 00:28:00,78.6,74.8,28.91,South,180,2.3,2.3,88,0.00,CLR,,0.00,WeatherDisplay:10.37,2013-08-30 05:28:00,
2013-08-30 00:33:00,78.6,74.8,28.91,South,180,3.5,3.5,88,0.00,CLR,,0.00,WeatherDisplay:10.37,2013-08-30 05:33:00,
2013-08-30 00:38:00,78.6,75.1,28.91,South,180,2.3,2.3,89,0.00,CLR,,0.00,WeatherDisplay:10.37,2013-08-30 05:38:00,
2013-08-30 00:43:00,78.6,75.1,28.88,SSE,158,6.9,6.9,89,0.00,CLR,,0.00,WeatherDisplay:10.37,2013-08-30 05:43:00,
2013-08-30 00:48:00,78.6,75.1,28.88,SW,225,3.5,3.5,89,0.00,CLR,,0.00,WeatherDisplay:10.37,2013-08-30 05:48:00,
2013-08-30 00:53:00,78.8,74.9,28.88,SSW,202,3.6,3.6,88,0.00,CLR,,0.00,WeatherDisplay:10.37,2013-08-30 05:53:00,
2013-08-30 00:58:00,78.8,74.9,28.91,SSW,202,10.4,10.4,88,0.00,CLR,,0.00,WeatherDisplay:10.37,2013-08-30 05:58:00,
2013-08-30 01:03:00,78.8,74.9,28.91,SW,225,4.6,4.6,88,0.00,CLR,,0.00,WeatherDisplay:10.37,2013-08-30 06:03:00,
2013-08-30 01:08:00,78.8,75.3,28.91,SSW,202,5.8,5.8,89,0.00,CLR,,0.00,WeatherDisplay:10.37,2013-08-30 06:08:00,
2013-08-30 01:13:00,78.8,74.9,28.91,SSW,202,3.8,3.8,88,0.00,CLR,,0.00,WeatherDisplay:10.37,2013-08-30 06:13:00,
2013-08-30 01:18:00,78.8,74.9,28.91,SW,225,3.5,4.5,88,0.00,CLR,,0.00,WeatherDisplay:10.37,2013-08-30 06:18:00,
2013-08-30 01:23:00,78.8,74.9,28.91,SSW,202,5.9,5.9,88,0.00,CLR,,0.00,WeatherDisplay:10.37,2013-08-30 06:23:00,
2013-08-30 01:28:00,78.8,74.9,28.91,SSW,202,4.6,4.6,88,0.00,CLR,,0.00,WeatherDisplay:10.37,2013-08-30 06:28:00,
2013-08-30 01:33:00,78.8,74.9,28.91,SW,225,4.6,4.6,88,0.00,CLR,,0.00,WeatherDisplay:10.37,2013-08-30 06:33:00,
2013-08-30 01:38:00,78.8,74.9,28.91,SSW,202,5.8,5.8,88,0.00,CLR,,0.00,WeatherDisplay:10.37,2013-08-30 06:38:00,
2013-08-30 01:43:00,78.8,74.9,28.91,SSW,202,6.4,6.4,88,0.00,CLR,,0.00,WeatherDisplay:10.37,2013-08-30 06:43:00,
2013-08-30 01:48:00,78.6,75.1,28.91,SSW,202,5.8,5.8,89,0.00,CLR,,0.00,WeatherDisplay:10.37,2013-08-30 06:48:00,
2013-08-30 01:53:00,78.6,75.1,28.91,SW,225,2.3,2.4,89,0.00,CLR,,0.00,WeatherDisplay:10.37,2013-08-30 06:53:00,
2013-08-30 01:58:00,78.6,75.1,28.88,SW,225,5.8,5.8,89,0.00,CLR,,0.00,WeatherDisplay:10.37,2013-08-30 06:58:00,
2013-08-30 02:03:00,78.6,75.1,28.88,SSW,202,5.8,5.8,89,0.00,CLR,,0.00,WeatherDisplay:10.37,2013-08-30 07:03:00,
2013-08-30 02:08:00,78.6,75.1,28.88,SW,225,6.9,6.9,89,0.00,CLR,,0.00,WeatherDisplay:10.37,2013-08-30 07:08:00,
2013-08-30 02:13:00,78.4,74.9,28.85,WSW,248,5.8,5.8,89,0.00,CLR,,0.00,WeatherDisplay:10.37,2013-08-30 07:13:00,
2013-08-30 02:18:00,78.4,74.9,28.85,SSW,202,4.6,4.6,89,0.00,CLR,,0.00,WeatherDisplay:10.37,2013-08-30 07:18:00,
2013-08-30 02:23:00,78.4,74.9,28.85,SSW,202,4.6,4.6,89,0.00,CLR,,0.00,WeatherDisplay:10.37,2013-08-30 07:23:00,
2013-08-30 02:28:00,78.4,74.9,28.88,WSW,248,5.9,5.9,89,0.00,CLR,,0.00,WeatherDisplay:10.37,2013-08-30 07:28:00,
2013-08-30 02:34:00,78.3,74.7,28.88,SSW,202,3.5,3.5,89,0.00,CLR,,0.00,WeatherDisplay:10.37,2013-08-30 07:34:00,
2013-08-30 02:39:00,78.3,74.7,28.88,SSW,202,5.8,5.8,89,0.00,CLR,,0.00,WeatherDisplay:10.37,2013-08-30 07:39:00,
2013-08-30 02:44:00,78.3,74.7,28.85,SSW,202,5.8,5.8,89,0.00,CLR,,0.00,WeatherDisplay:10.37,2013-08-30 07:44:00,
2013-08-30 02:49:00,78.1,74.6,28.85,SSW,202,4.6,4.6,89,0.00,CLR,,0.00,WeatherDisplay:10.37,2013-08-30 07:49:00,
2013-08-30 02:54:00,78.1,74.6,28.85,SW,225,2.6,2.6,89,0.00,CLR,,0.00,WeatherDisplay:10.37,2013-08-30 07:54:00,
2013-08-30 02:59:00,77.9,74.4,28.85,SSW,202,2.3,2.6,89,0.00,CLR,,0.00,WeatherDisplay:10.37,2013-08-30 07:59:00,
2013-08-30 03:04:00,77.9,74.4,28.85,SSW,202,2.3,2.3,89,0.00,CLR,,0.00,WeatherDisplay:10.37,2013-08-30 08:04:00,
2013-08-30 03:09:00,77.7,74.2,28.85,SW,225,4.6,4.6,89,0.00,CLR,,0.00,WeatherDisplay:10.37,2013-08-30 08:09:00,
2013-08-30 03:14:00,77.5,74.0,28.85,WSW,248,3.5,3.5,89,0.00,CLR,,0.00,WeatherDisplay:10.37,2013-08-30 08:14:00,
2013-08-30 03:19:00,77.5,74.0,28.85,SSW,202,2.3,2.3,89,0.00,CLR,,0.00,WeatherDisplay:10.37,2013-08-30 08:19:00,
2013-08-30 03:24:00,77.4,73.9,28.85,SSW,202,3.5,3.5,89,0.00,CLR,,0.00,WeatherDisplay:10.37,2013-08-30 08:24:00,
2013-08-30 03:29:00,77.4,73.9,28.88,SSW,202,2.3,2.3,89,0.00,CLR,,0.00,WeatherDisplay:10.37,2013-08-30 08:29:00,
2013-08-30 03:34:00,77.2,73.7,28.88,SSW,202,1.4,0.0,89,0.00,CLR,,0.00,WeatherDisplay:10.37,2013-08-30 08:34:00,
2013-08-30 03:39:00,77.2,73.7,28.88,SSW,202,1.1,0.0,89,0.00,CLR,,0.00,WeatherDisplay:10.37,2013-08-30 08:39:00,
2013-08-30 03:44:00,77.0,73.5,28.85,SSW,202,0.0,0.0,89,0.00,CLR,,0.00,WeatherDisplay:10.37,2013-08-30 08:44:00,
2013-08-30 03:49:00,76.8,73.7,28.85,SSW,202,0.0,0.0,90,0.00,CLR,,0.00,WeatherDisplay:10.37,2013-08-30 08:49:00,
2013-08-30 03:54:00,76.6,73.5,28.85,SSW,202,1.4,1.4,90,0.00,CLR,,0.00,WeatherDisplay:10.37,2013-08-30 08:54:00,
2013-08-30 03:59:00,76.5,73.3,28.88,SSW,202,0.0,0.0,90,0.00,CLR,,0.00,WeatherDisplay:10.37,2013-08-30 08:59:00,
2013-08-30 04:04:00,76.3,73.1,28.88,SSW,202,0.0,0.0,90,0.00,CLR,,0.00,WeatherDisplay:10.37,2013-08-30 09:04:00,
2013-08-30 04:09:00,76.1,73.0,28.88,SSW,202,0.0,0.0,90,0.00,CLR,,0.00,WeatherDisplay:10.37,2013-08-30 09:09:00,
2013-08-30 04:14:00,75.9,72.8,28.88,SSW,202,0.0,0.0,90,0.00,CLR,,0.00,WeatherDisplay:10.37,2013-08-30 09:14:00,
2013-08-30 04:19:00,75.7,72.6,28.88,SSW,202,0.0,0.0,90,0.00,CLR,,0.00,WeatherDisplay:10.37,2013-08-30 09:19:00,
2013-08-30 04:24:00,75.6,72.4,28.88,SSW,202,0.0,0.0,90,0.00,CLR,,0.00,WeatherDisplay:10.37,2013-08-30 09:24:00,
2013-08-30 04:29:00,75.4,72.6,28.85,SSW,202,0.0,0.0,91,0.00,CLR,,0.00,WeatherDisplay:10.37,2013-08-30 09:29:00,
2013-08-30 04:34:00,75.2,72.4,28.85,SE,135,2.3,2.3,91,0.00,CLR,,0.00,WeatherDisplay:10.37,2013-08-30 09:34:00,
2013-08-30 04:39:00,75.0,72.2,28.85,SE,135,2.0,2.0,91,0.00,CLR,,0.00,WeatherDisplay:10.37,2013-08-30 09:39:00,
2013-08-30 04:44:00,75.0,72.2,28.82,SE,135,1.1,1.1,91,0.00,CLR,,0.00,WeatherDisplay:10.37,2013-08-30 09:44:00,
2013-08-30 04:49:00,74.7,72.2,28.82,SE,135,1.1,0.0,92,0.00,CLR,,0.00,WeatherDisplay:10.37,2013-08-30 09:49:00,
2013-08-30 04:54:00,74.7,72.2,28.82,SE,135,0.0,0.0,92,0.00,CLR,,0.00,WeatherDisplay:10.37,2013-08-30 09:54:00,
2013-08-30 04:59:00,74.7,72.2,28.85,SE,135,0.0,0.0,92,0.00,CLR,,0.00,WeatherDisplay:10.37,2013-08-30 09:59:00,
2013-08-30 05:04:00,74.5,72.0,28.85,SE,135,0.0,0.0,92,0.00,CLR,,0.00,WeatherDisplay:10.37,2013-08-30 10:04:00,
2013-08-30 05:09:00,74.5,72.0,28.85,SE,135,0.0,0.0,92,0.00,CLR,,0.00,WeatherDisplay:10.37,2013-08-30 10:09:00,
2013-08-30 05:14:00,74.5,72.3,28.82,SE,135,0.0,0.0,93,0.00,CLR,,0.00,WeatherDisplay:10.37,2013-08-30 10:14:00,
2013-08-30 05:19:00,74.5,72.3,28.82,SE,135,1.1,0.0,93,0.00,CLR,,0.00,WeatherDisplay:10.37,2013-08-30 10:19:00,
2013-08-30 05:24:00,74.5,72.3,28.82,SE,135,2.3,2.3,93,0.00,CLR,,0.00,WeatherDisplay:10.37,2013-08-30 10:24:00,
2013-08-30 05:29:00,74.7,72.5,28.82,SE,135,1.6,1.6,93,0.00,CLR,,0.00,WeatherDisplay:10.37,2013-08-30 10:29:00,
2013-08-30 05:34:00,74.7,72.5,28.82,SE,135,0.0,0.0,93,0.00,CLR,,0.00,WeatherDisplay:10.37,2013-08-30 10:34:00,
2013-08-30 05:39:00,74.7,72.5,28.82,SE,135,0.0,0.0,93,0.00,CLR,,0.00,WeatherDisplay:10.37,2013-08-30 10:39:00,
2013-08-30 05:44:00,74.7,72.5,28.82,SE,135,0.0,0.0,93,0.00,CLR,,0.00,WeatherDisplay:10.37,2013-08-30 10:44:00,
2013-08-30 05:49:00,74.5,72.3,28.82,SE,135,1.1,0.0,93,0.00,CLR,,0.00,WeatherDisplay:10.37,2013-08-30 10:49:00,
2013-08-30 05:54:00,74.5,72.3,28.82,SE,135,2.3,2.3,93,0.00,CLR,,0.00,WeatherDisplay:10.37,2013-08-30 10:54:00,
2013-08-30 05:59:00,74.5,72.3,28.82,SE,135,2.4,2.4,93,0.00,CLR,,0.00,WeatherDisplay:10.37,2013-08-30 10:59:00,
2013-08-30 06:04:00,74.3,72.1,28.82,SW,225,2.3,2.3,93,0.00,CLR,,0.00,WeatherDisplay:10.37,2013-08-30 11:04:00,
2013-08-30 06:09:00,74.3,72.5,28.82,SW,225,2.3,2.3,94,0.00,CLR,,0.00,WeatherDisplay:10.37,2013-08-30 11:09:00,
2013-08-30 06:14:00,74.5,72.6,28.82,SW,225,2.4,2.4,94,0.00,CLR,,0.00,WeatherDisplay:10.37,2013-08-30 11:14:00,
2013-08-30 06:19:00,74.5,72.6,28.82,SW,225,2.6,2.6,94,0.00,CLR,,0.00,WeatherDisplay:10.37,2013-08-30 11:19:00,
2013-08-30 06:24:00,74.5,72.6,28.82,SW,225,2.0,2.0,94,0.00,CLR,,0.00,WeatherDisplay:10.37,2013-08-30 11:24:00,
2013-08-30 06:29:00,74.5,72.6,28.85,SSW,202,2.3,2.3,94,0.00,CLR,,0.00,WeatherDisplay:10.37,2013-08-30 11:29:00,
2013-08-30 06:34:00,74.7,72.8,28.85,SSW,202,2.0,2.0,94,0.00,CLR,,0.00,WeatherDisplay:10.37,2013-08-30 11:34:00,
2013-08-30 06:39:00,74.7,72.8,28.85,SW,225,3.5,3.5,94,0.00,CLR,,0.00,WeatherDisplay:10.37,2013-08-30 11:39:00,
2013-08-30 06:44:00,74.8,73.0,28.85,SSW,202,1.1,0.0,94,0.00,CLR,,0.00,WeatherDisplay:10.37,2013-08-30 11:44:00,
2013-08-30 06:49:00,74.8,73.0,28.85,SSW,202,0.0,0.0,94,0.00,CLR,,0.00,WeatherDisplay:10.37,2013-08-30 11:49:00,
2013-08-30 06:54:00,75.0,73.2,28.85,NNW,338,1.1,1.4,94,0.00,CLR,,0.00,WeatherDisplay:10.37,2013-08-30 11:54:00,
2013-08-30 06:59:00,75.0,73.2,28.85,NNW,338,0.0,0.0,94,0.00,CLR,,0.00,WeatherDisplay:10.37,2013-08-30 11:59:00,
2013-08-30 07:04:00,75.2,73.0,28.85,West,270,2.3,2.3,93,0.00,CLR,,0.00,WeatherDisplay:10.37,2013-08-30 12:04:00,
2013-08-30 07:09:00,75.2,73.0,28.85,North,0,0.0,0.0,93,0.00,CLR,,0.00,WeatherDisplay:10.37,2013-08-30 12:09:00,
2013-08-30 07:14:00,75.4,73.2,28.85,SE,135,0.0,0.0,93,0.00,CLR,,0.00,WeatherDisplay:10.37,2013-08-30 12:14:00,
2013-08-30 07:19:00,75.4,73.2,28.85,SE,135,0.0,0.0,93,0.00,CLR,,0.00,WeatherDisplay:10.37,2013-08-30 12:19:00,
2013-08-30 07:24:00,75.6,73.4,28.85,SE,135,0.0,0.0,93,0.00,CLR,,0.00,WeatherDisplay:10.37,2013-08-30 12:24:00,
2013-08-30 07:29:00,75.6,73.4,28.85,SE,135,0.0,0.0,93,0.00,CLR,,0.00,WeatherDisplay:10.37,2013-08-30 12:29:00,
2013-08-30 07:34:00,75.6,73.4,28.85,SE,135,1.1,0.0,93,0.00,CLR,,0.00,WeatherDisplay:10.37,2013-08-30 12:34:00,
2013-08-30 07:39:00,75.6,73.1,28.85,SE,135,1.1,0.0,92,0.00,CLR,,0.00,WeatherDisplay:10.37,2013-08-30 12:39:00,
2013-08-30 07:44:00,75.7,73.2,28.85,SE,135,0.0,0.0,92,0.00,CLR,,0.00,WeatherDisplay:10.37,2013-08-30 12:44:00,
2013-08-30 07:49:00,75.7,73.2,28.85,SE,135,0.0,0.0,92,0.00,CLR,,0.00,WeatherDisplay:10.37,2013-08-30 12:49:00,
2013-08-30 07:54:00,75.9,73.4,28.85,SE,135,0.0,0.0,92,0.00,CLR,,0.00,WeatherDisplay:10.37,2013-08-30 12:54:00,
2013-08-30 07:59:00,76.1,73.6,28.88,SE,135,0.0,0.0,92,0.00,CLR,,0.00,WeatherDisplay:10.37,2013-08-30 12:59:00,
2013-08-30 08:04:00,76.1,73.6,28.88,SE,135,1.1,0.0,92,0.00,CLR,,0.00,WeatherDisplay:10.37,2013-08-30 13:04:00,
2013-08-30 08:09:00,76.3,73.8,28.88,SE,135,1.1,0.0,92,0.00,CLR,,0.00,WeatherDisplay:10.37,2013-08-30 13:09:00,
2013-08-30 08:14:00,76.5,73.6,28.88,SE,135,1.1,1.1,91,0.00,CLR,,0.00,WeatherDisplay:10.37,2013-08-30 13:14:00,
2013-08-30 08:19:00,76.6,73.8,28.88,SE,135,0.0,0.0,91,0.00,CLR,,0.00,WeatherDisplay:10.37,2013-08-30 13:19:00,
2013-08-30 08:24:00,76.6,73.8,28.88,North,0,1.6,1.6,91,0.00,CLR,,0.00,WeatherDisplay:10.37,2013-08-30 13:24:00,
2013-08-30 08:29:00,77.0,73.8,28.88,North,0,3.1,3.1,90,0.00,CLR,,0.00,WeatherDisplay:10.37,2013-08-30 13:29:00,
2013-08-30 08:34:00,77.2,73.7,28.88,NNW,338,2.3,2.3,89,0.00,CLR,,0.00,WeatherDisplay:10.37,2013-08-30 13:34:00,
2013-08-30 08:39:00,77.4,73.9,28.88,East,90,2.3,2.6,89,0.00,CLR,,0.00,WeatherDisplay:10.37,2013-08-30 13:39:00,
2013-08-30 08:44:00,77.5,73.7,28.88,NNE,22,5.8,5.8,88,0.00,CLR,,0.00,WeatherDisplay:10.37,2013-08-30 13:44:00,
2013-08-30 08:49:00,77.5,73.7,28.88,North,0,5.6,5.6,88,0.00,CLR,,0.00,WeatherDisplay:10.37,2013-08-30 13:49:00,
2013-08-30 08:54:00,77.5,73.4,28.88,NW,315,4.6,4.6,87,0.00,CLR,,0.00,WeatherDisplay:10.37,2013-08-30 13:54:00,
2013-08-30 08:59:00,77.5,73.0,28.88,ENE,68,5.4,5.4,86,0.00,CLR,,0.00,WeatherDisplay:10.37,2013-08-30 13:59:00,
2013-08-30 09:04:00,77.5,73.0,28.88,NNW,338,3.5,3.5,86,0.00,CLR,,0.00,WeatherDisplay:10.37,2013-08-30 14:04:00,
2013-08-30 09:09:00,77.4,72.5,28.88,East,90,5.8,5.8,85,0.00,CLR,,0.00,WeatherDisplay:10.37,2013-08-30 14:09:00,
2013-08-30 09:15:00,77.2,72.3,28.88,NE,45,8.1,8.1,85,0.00,CLR,,0.00,WeatherDisplay:10.37,2013-08-30 14:15:00,
2013-08-30 09:20:00,77.2,72.3,28.88,ENE,68,3.6,3.6,85,0.00,CLR,,0.00,WeatherDisplay:10.37,2013-08-30 14:20:00,
2013-08-30 09:25:00,77.2,72.3,28.88,West,270,3.5,3.5,85,0.00,CLR,,0.00,WeatherDisplay:10.37,2013-08-30 14:25:00,
2013-08-30 09:30:00,77.2,72.3,28.88,NNE,22,5.8,5.8,85,0.00,CLR,,0.00,WeatherDisplay:10.37,2013-08-30 14:30:00,
2013-08-30 09:35:00,77.2,72.3,28.88,NNE,22,4.6,4.6,85,0.00,CLR,,0.00,WeatherDisplay:10.37,2013-08-30 14:35:00,
2013-08-30 09:40:00,77.2,72.3,28.88,ENE,68,3.6,3.6,85,0.00,CLR,,0.00,WeatherDisplay:10.37,2013-08-30 14:40:00,
2013-08-30 09:45:00,77.2,72.3,28.88,NE,45,3.5,3.5,85,0.00,CLR,,0.00,WeatherDisplay:10.37,2013-08-30 14:45:00,
2013-08-30 09:50:00,77.5,72.3,28.88,NE,45,4.0,4.0,84,0.00,CLR,,0.00,WeatherDisplay:10.37,2013-08-30 14:50:00,
2013-08-30 09:55:00,77.5,72.3,28.88,East,90,4.0,4.0,84,0.00,CLR,,0.00,WeatherDisplay:10.37,2013-08-30 14:55:00,
2013-08-30 10:00:00,77.5,72.0,28.88,NE,45,3.5,3.5,83,0.00,CLR,,0.00,WeatherDisplay:10.37,2013-08-30 15:00:00,
2013-08-30 10:05:00,77.5,72.0,28.88,NNE,22,3.5,3.5,83,0.00,CLR,,0.00,WeatherDisplay:10.37,2013-08-30 15:05:00,
2013-08-30 10:10:00,77.4,71.4,28.88,NNE,22,4.6,4.6,82,0.00,CLR,,0.00,WeatherDisplay:10.37,2013-08-30 15:10:00,
2013-08-30 10:15:00,77.2,71.3,28.91,NNE,22,4.6,4.6,82,0.00,CLR,,0.00,WeatherDisplay:10.37,2013-08-30 15:15:00,
2013-08-30 10:20:00,77.2,71.3,28.91,SE,135,2.3,2.3,82,0.00,CLR,,0.00,WeatherDisplay:10.37,2013-08-30 15:20:00,
2013-08-30 10:25:00,77.5,71.2,28.91,NE,45,4.6,4.6,81,0.00,CLR,,0.00,WeatherDisplay:10.37,2013-08-30 15:25:00,
2013-08-30 10:30:00,77.7,71.4,28.91,East,90,5.9,5.9,81,0.00,CLR,,0.00,WeatherDisplay:10.37,2013-08-30 15:30:00,
2013-08-30 10:35:00,78.1,71.4,28.91,NE,45,5.8,5.8,80,0.00,CLR,,0.00,WeatherDisplay:10.37,2013-08-30 15:35:00,
2013-08-30 10:40:00,79.0,71.9,28.91,ENE,68,5.8,5.8,79,0.00,CLR,,0.00,WeatherDisplay:10.37,2013-08-30 15:40:00,
2013-08-30 10:45:00,79.0,71.5,28.91,NNE,22,5.8,5.8,78,0.00,CLR,,0.00,WeatherDisplay:10.37,2013-08-30 15:45:00,
2013-08-30 10:50:00,78.8,71.0,28.91,NE,45,8.1,8.1,77,0.00,CLR,,0.00,WeatherDisplay:10.37,2013-08-30 15:50:00,
2013-08-30 10:55:00,78.4,71.0,28.91,ENE,68,4.6,4.6,78,0.00,CLR,,0.00,WeatherDisplay:10.37,2013-08-30 15:55:00,
2013-08-30 11:00:00,78.3,70.5,28.88,NNE,22,7.4,7.4,77,0.00,CLR,,0.00,WeatherDisplay:10.37,2013-08-30 16:00:00,
2013-08-30 11:05:00,78.8,71.0,28.88,East,90,6.9,6.9,77,0.00,CLR,,0.00,WeatherDisplay:10.37,2013-08-30 16:05:00,
2013-08-30 11:10:00,78.8,71.0,28.88,ENE,68,4.6,4.6,77,0.00,CLR,,0.00,WeatherDisplay:10.37,2013-08-30 16:10:00,
2013-08-30 11:15:00,79.2,70.5,28.91,NE,45,10.0,10.0,75,0.00,CLR,,0.00,WeatherDisplay:10.37,2013-08-30 16:15:00,
2013-08-30 11:20:00,79.3,70.3,28.91,WNW,292,4.6,4.6,74,0.00,CLR,,0.00,WeatherDisplay:10.37,2013-08-30 16:20:00,
2013-08-30 11:25:00,79.7,70.7,28.91,NNW,338,5.8,5.8,74,0.00,CLR,,0.00,WeatherDisplay:10.37,2013-08-30 16:25:00,
2013-08-30 11:30:00,80.1,70.6,28.88,NNE,22,5.8,5.8,73,0.00,CLR,,0.00,WeatherDisplay:10.37,2013-08-30 16:30:00,
2013-08-30 11:35:00,79.9,70.4,28.88,NNE,22,2.3,2.3,73,0.00,CLR,,0.00,WeatherDisplay:10.37,2013-08-30 16:35:00,
2013-08-30 11:40:00,79.9,69.2,28.88,NNE,22,5.8,5.8,70,0.00,CLR,,0.00,WeatherDisplay:10.37,2013-08-30 16:40:00,
2013-08-30 11:45:00,79.5,68.0,28.91,East,90,9.2,9.2,68,0.00,CLR,,0.00,WeatherDisplay:10.37,2013-08-30 16:45:00,
2013-08-30 11:50:00,79.5,68.5,28.91,NNE,22,4.6,4.6,69,0.00,CLR,,0.00,WeatherDisplay:10.37,2013-08-30 16:50:00,
2013-08-30 11:55:00,79.7,68.2,28.91,North,0,5.8,5.8,68,0.00,CLR,,0.00,WeatherDisplay:10.37,2013-08-30 16:55:00,
2013-08-30 12:00:00,80.1,68.1,28.91,East,90,5.8,5.8,67,0.00,CLR,,0.00,WeatherDisplay:10.37,2013-08-30 17:00:00,
2013-08-30 12:05:00,80.4,68.0,28.91,SE,135,10.4,10.4,66,0.00,CLR,,0.00,WeatherDisplay:10.37,2013-08-30 17:05:00,
2013-08-30 12:10:00,80.2,67.8,28.91,ENE,68,5.8,5.8,66,0.00,CLR,,0.00,WeatherDisplay:10.37,2013-08-30 17:10:00,
2013-08-30 12:15:00,80.4,67.6,28.91,NNW,338,5.8,5.8,65,0.00,CLR,,0.00,WeatherDisplay:10.37,2013-08-30 17:15:00,
2013-08-30 12:20:00,80.8,67.0,28.91,ENE,68,6.9,6.9,63,0.00,CLR,,0.00,WeatherDisplay:10.37,2013-08-30 17:20:00,
2013-08-30 12:25:00,81.3,68.0,28.91,NNE,22,4.6,4.6,64,0.00,CLR,,0.00,WeatherDisplay:10.37,2013-08-30 17:25:00,
2013-08-30 12:30:00,81.5,68.1,28.91,NNE,22,3.5,3.5,64,0.00,CLR,,0.00,WeatherDisplay:10.37,2013-08-30 17:30:00,
2013-08-30 12:35:00,81.3,67.5,28.91,ENE,68,3.5,3.5,63,0.00,CLR,,0.00,WeatherDisplay:10.37,2013-08-30 17:35:00,
2013-08-30 12:40:00,81.1,66.9,28.91,East,90,9.2,9.2,62,0.00,CLR,,0.00,WeatherDisplay:10.37,2013-08-30 17:40:00,
2013-08-30 12:45:00,81.7,67.4,28.91,ENE,68,8.1,8.1,62,0.00,CLR,,0.00,WeatherDisplay:10.37,2013-08-30 17:45:00,
2013-08-30 12:50:00,81.9,67.1,28.91,ENE,68,11.8,11.8,61,0.00,CLR,,0.00,WeatherDisplay:10.37,2013-08-30 17:50:00,
2013-08-30 12:55:00,81.3,67.1,28.91,East,90,4.6,4.6,62,0.00,CLR,,0.00,WeatherDisplay:10.37,2013-08-30 17:55:00,
2013-08-30 13:00:00,81.5,66.8,28.91,ENE,68,8.1,8.1,61,0.00,CLR,,0.00,WeatherDisplay:10.37,2013-08-30 18:00:00,
2013-08-30 13:05:00,81.3,67.1,28.91,ENE,68,6.7,6.7,62,0.00,CLR,,0.00,WeatherDisplay:10.37,2013-08-30 18:05:00,
2013-08-30 13:10:00,81.3,67.5,28.91,NE,45,4.6,4.6,63,0.00,CLR,,0.00,WeatherDisplay:10.37,2013-08-30 18:10:00,
2013-08-30 13:15:00,81.1,66.9,28.91,NE,45,6.9,6.9,62,0.00,CLR,,0.00,WeatherDisplay:10.37,2013-08-30 18:15:00,
2013-08-30 13:20:00,81.0,66.7,28.91,WNW,292,5.8,5.8,62,0.00,CLR,,0.00,WeatherDisplay:10.37,2013-08-30 18:20:00,
2013-08-30 13:25:00,81.1,67.3,28.91,NNW,338,8.1,8.1,63,0.00,CLR,,0.00,WeatherDisplay:10.37,2013-08-30 18:25:00,
2013-08-30 13:30:00,81.7,67.4,28.91,ESE,112,5.8,5.8,62,0.00,CLR,,0.00,WeatherDisplay:10.37,2013-08-30 18:30:00,
2013-08-30 13:35:00,81.7,66.9,28.91,NNE,22,8.1,8.1,61,0.00,CLR,,0.00,WeatherDisplay:10.37,2013-08-30 18:35:00,
2013-08-30 13:40:00,81.5,67.2,28.91,NNE,22,4.6,4.6,62,0.00,CLR,,0.00,WeatherDisplay:10.37,2013-08-30 18:40:00,
2013-08-30 13:45:00,81.5,67.2,28.91,NNE,22,10.4,10.4,62,0.00,CLR,,0.00,WeatherDisplay:10.37,2013-08-30 18:45:00,
2013-08-30 13:50:00,81.7,67.9,28.91,ENE,68,3.5,3.6,63,0.00,CLR,,0.00,WeatherDisplay:10.37,2013-08-30 18:50:00,
2013-08-30 13:55:00,82.4,68.1,28.91,ENE,68,9.2,9.2,62,0.00,CLR,,0.00,WeatherDisplay:10.37,2013-08-30 18:55:00,
2013-08-30 14:00:00,82.6,67.3,28.91,NNE,22,8.1,8.1,60,0.00,CLR,,0.00,WeatherDisplay:10.37,2013-08-30 19:00:00,
2013-08-30 14:05:00,82.6,66.8,28.91,ENE,68,6.9,6.9,59,0.00,CLR,,0.00,WeatherDisplay:10.37,2013-08-30 19:05:00,
2013-08-30 14:11:00,83.1,68.3,28.91,NE,45,5.8,5.8,61,0.00,CLR,,0.00,WeatherDisplay:10.37,2013-08-30 19:11:00,
2013-08-30 14:16:00,82.9,67.6,28.91,NNW,338,10.4,10.4,60,0.00,CLR,,0.00,WeatherDisplay:10.37,2013-08-30 19:16:00,
2013-08-30 14:21:00,83.1,68.3,28.91,NE,45,3.5,3.5,61,0.00,CLR,,0.00,WeatherDisplay:10.37,2013-08-30 19:21:00,
2013-08-30 14:26:00,83.1,66.8,28.91,NE,45,5.8,5.8,58,0.00,CLR,,0.00,WeatherDisplay:10.37,2013-08-30 19:26:00,
2013-08-30 14:31:00,82.6,66.3,28.91,ENE,68,9.2,9.2,58,0.00,CLR,,0.00,WeatherDisplay:10.37,2013-08-30 19:31:00,
2013-08-30 14:36:00,82.6,67.8,28.91,NE,45,4.6,4.6,61,0.00,CLR,,0.00,WeatherDisplay:10.37,2013-08-30 19:36:00,
2013-08-30 14:41:00,82.8,67.9,28.91,NE,45,4.6,4.6,61,0.00,CLR,,0.00,WeatherDisplay:10.37,2013-08-30 19:41:00,
2013-08-30 14:46:00,82.8,67.5,28.91,ENE,68,8.1,8.1,60,0.00,CLR,,0.00,WeatherDisplay:10.37,2013-08-30 19:46:00,
2013-08-30 14:51:00,82.8,67.0,28.91,NE,45,7.8,7.8,59,0.00,CLR,,0.00,WeatherDisplay:10.37,2013-08-30 19:51:00,
2013-08-30 14:56:00,82.9,67.1,28.91,ENE,68,6.9,6.9,59,0.00,CLR,,0.00,WeatherDisplay:10.37,2013-08-30 19:56:00,
2013-08-30 15:01:00,83.1,67.3,28.91,NE,45,4.6,4.6,59,0.00,CLR,,0.00,WeatherDisplay:10.37,2013-08-30 20:01:00,
2013-08-30 15:06:00,83.3,67.0,28.91,North,0,5.8,5.8,58,0.00,CLR,,0.00,WeatherDisplay:10.37,2013-08-30 20:06:00,
2013-08-30 15:11:00,83.5,66.6,28.91,East,90,4.6,4.6,57,0.00,CLR,,0.00,WeatherDisplay:10.37,2013-08-30 20:11:00,
2013-08-30 15:16:00,83.7,66.8,28.88,ENE,68,6.9,6.9,57,0.00,CLR,,0.00,WeatherDisplay:10.37,2013-08-30 20:16:00,
2013-08-30 15:21:00,83.7,66.8,28.88,NNE,22,5.8,5.8,57,0.00,CLR,,0.00,WeatherDisplay:10.37,2013-08-30 20:21:00,
2013-08-30 15:26:00,83.8,67.0,28.88,NNW,338,2.3,2.3,57,0.00,CLR,,0.00,WeatherDisplay:10.37,2013-08-30 20:26:00,
2013-08-30 15:31:00,83.8,65.9,28.91,ENE,68,5.8,5.8,55,0.00,CLR,,0.00,WeatherDisplay:10.37,2013-08-30 20:31:00,
2013-08-30 15:36:00,84.2,67.3,28.91,NNE,22,5.8,5.8,57,0.00,CLR,,0.00,WeatherDisplay:10.37,2013-08-30 20:36:00,
2013-08-30 15:41:00,84.6,67.1,28.91,NNE,22,5.8,5.8,56,0.00,CLR,,0.00,WeatherDisplay:10.37,2013-08-30 20:41:00,
2013-08-30 15:46:00,84.2,66.3,28.91,ENE,68,4.6,4.6,55,0.00,CLR,,0.00,WeatherDisplay:10.37,2013-08-30 20:46:00,
2013-08-30 15:51:00,84.2,66.8,28.91,NNE,22,2.3,2.3,56,0.00,CLR,,0.00,WeatherDisplay:10.37,2013-08-30 20:51:00,
2013-08-30 15:56:00,84.2,65.8,28.91,NE,45,5.9,5.9,54,0.00,CLR,,0.00,WeatherDisplay:10.37,2013-08-30 20:56:00,
2013-08-30 16:01:00,84.2,65.8,28.91,ENE,68,5.8,5.8,54,0.00,CLR,,0.00,WeatherDisplay:10.37,2013-08-30 21:01:00,
2013-08-30 16:06:00,84.2,66.3,28.91,ENE,68,5.8,5.8,55,0.00,CLR,,0.00,WeatherDisplay:10.37,2013-08-30 21:06:00,
2013-08-30 16:11:00,84.4,65.9,28.91,North,0,5.8,5.8,54,0.00,CLR,,0.00,WeatherDisplay:10.37,2013-08-30 21:11:00,
2013-08-30 16:16:00,84.2,66.3,28.91,ENE,68,3.5,3.5,55,0.00,CLR,,0.00,WeatherDisplay:10.37,2013-08-30 21:16:00,
2013-08-30 16:21:00,84.0,66.6,28.91,NNE,22,6.9,6.9,56,0.00,CLR,,0.00,WeatherDisplay:10.37,2013-08-30 21:21:00,
2013-08-30 16:26:00,83.8,65.9,28.91,ENE,68,5.8,5.8,55,0.00,CLR,,0.00,WeatherDisplay:10.37,2013-08-30 21:26:00,
2013-08-30 16:31:00,83.7,65.3,28.91,North,0,2.6,2.6,54,0.00,CLR,,0.00,WeatherDisplay:10.37,2013-08-30 21:31:00,
2013-08-30 16:36:00,83.7,65.8,28.91,North,0,4.3,4.3,55,0.00,CLR,,0.00,WeatherDisplay:10.37,2013-08-30 21:36:00,
2013-08-30 16:41:00,83.5,65.6,28.91,ENE,68,3.5,3.5,55,0.00,CLR,,0.00,WeatherDisplay:10.37,2013-08-30 21:41:00,
2013-08-30 16:46:00,83.5,65.6,28.91,NE,45,3.5,3.5,55,0.00,CLR,,0.00,WeatherDisplay:10.37,2013-08-30 21:46:00,
2013-08-30 16:51:00,83.3,65.4,28.91,ENE,68,6.0,6.0,55,0.00,CLR,,0.00,WeatherDisplay:10.37,2013-08-30 21:51:00,
2013-08-30 16:56:00,82.9,64.6,28.91,North,0,8.1,8.1,54,0.00,CLR,,0.00,WeatherDisplay:10.37,2013-08-30 21:56:00,
2013-08-30 17:01:00,82.9,65.1,28.91,ENE,68,3.5,3.5,55,0.00,CLR,,0.00,WeatherDisplay:10.37,2013-08-30 22:01:00,
2013-08-30 17:06:00,82.9,65.1,28.91,NE,45,5.4,5.4,55,0.00,CLR,,0.00,WeatherDisplay:10.37,2013-08-30 22:06:00,
2013-08-30 17:11:00,82.8,64.4,28.91,NNE,22,5.8,5.8,54,0.00,CLR,,0.00,WeatherDisplay:10.37,2013-08-30 22:11:00,
2013-08-30 17:16:00,82.6,64.8,28.88,NNW,338,3.8,3.8,55,0.00,CLR,,0.00,WeatherDisplay:10.37,2013-08-30 22:16:00,
2013-08-30 17:21:00,82.4,64.1,28.88,ENE,68,5.8,5.8,54,0.00,CLR,,0.00,WeatherDisplay:10.37,2013-08-30 22:21:00,
2013-08-30 17:26:00,82.2,63.9,28.88,NNW,338,6.9,6.9,54,0.00,CLR,,0.00,WeatherDisplay:10.37,2013-08-30 22:26:00,
2013-08-30 17:31:00,82.0,64.3,28.88,ENE,68,5.6,5.6,55,0.00,CLR,,0.00,WeatherDisplay:10.37,2013-08-30 22:31:00,
2013-08-30 17:36:00,81.9,63.1,28.88,North,0,6.9,6.9,53,0.00,CLR,,0.00,WeatherDisplay:10.37,2013-08-30 22:36:00,
2013-08-30 17:41:00,81.7,62.9,28.91,NNE,22,9.2,9.2,53,0.00,CLR,,0.00,WeatherDisplay:10.37,2013-08-30 22:41:00,
2013-08-30 17:46:00,81.5,63.3,28.91,NE,45,4.6,4.6,54,0.00,CLR,,0.00,WeatherDisplay:10.37,2013-08-30 22:46:00,
2013-08-30 17:51:00,81.3,63.1,28.91,ENE,68,5.8,5.8,54,0.00,CLR,,0.00,WeatherDisplay:10.37,2013-08-30 22:51:00,
2013-08-30 17:56:00,81.1,62.9,28.88,NE,45,4.6,4.6,54,0.00,CLR,,0.00,WeatherDisplay:10.37,2013-08-30 22:56:00,
2013-08-30 18:01:00,81.0,63.3,28.88,NNE,22,6.9,6.9,55,0.00,CLR,,0.00,WeatherDisplay:10.37,2013-08-30 23:01:00,
2013-08-30 18:06:00,81.0,63.3,28.88,ENE,68,4.6,4.6,55,0.00,CLR,,0.00,WeatherDisplay:10.37,2013-08-30 23:06:00,
2013-08-30 18:11:00,80.8,63.1,28.88,NNW,338,8.1,8.1,55,0.00,CLR,,0.00,WeatherDisplay:10.37,2013-08-30 23:11:00,
2013-08-30 18:16:00,80.6,63.5,28.88,NE,45,5.8,5.8,56,0.00,CLR,,0.00,WeatherDisplay:10.37,2013-08-30 23:16:00,
2013-08-30 18:21:00,80.4,63.3,28.88,East,90,5.4,5.4,56,0.00,CLR,,0.00,WeatherDisplay:10.37,2013-08-30 23:21:00,
2013-08-30 18:26:00,80.2,63.1,28.88,NNW,338,4.6,4.6,56,0.00,CLR,,0.00,WeatherDisplay:10.37,2013-08-30 23:26:00,
2013-08-30 18:31:00,80.1,62.4,28.88,NE,45,3.5,3.5,55,0.00,CLR,,0.00,WeatherDisplay:10.37,2013-08-30 23:31:00,
2013-08-30 18:36:00,79.7,62.6,28.88,ENE,68,5.8,5.8,56,0.00,CLR,,0.00,WeatherDisplay:10.37,2013-08-30 23:36:00,
2013-08-30 18:41:00,79.5,62.9,28.91,NNE,22,4.6,4.6,57,0.00,CLR,,0.00,WeatherDisplay:10.37,2013-08-30 23:41:00,
2013-08-30 18:46:00,79.3,62.8,28.91,ENE,68,4.6,4.6,57,0.00,CLR,,0.00,WeatherDisplay:10.37,2013-08-30 23:46:00,
2013-08-30 18:51:00,79.0,62.9,28.91,ENE,68,5.8,5.8,58,0.00,CLR,,0.00,WeatherDisplay:10.37,2013-08-30 23:51:00,
2013-08-30 18:56:00,78.8,63.3,28.91,NNE,22,5.4,5.4,59,0.00,CLR,,0.00,WeatherDisplay:10.37,2013-08-30 23:56:00,
2013-08-30 19:01:00,78.6,63.6,28.91,NE,45,4.6,4.6,60,0.00,CLR,,0.00,WeatherDisplay:10.37,2013-08-31 00:01:00,
2013-08-30 19:06:00,78.4,63.4,28.91,NE,45,3.5,3.5,60,0.00,CLR,,0.00,WeatherDisplay:10.37,2013-08-31 00:06:00,
2013-08-30 19:11:00,78.1,63.5,28.91,ENE,68,5.8,5.8,61,0.00,CLR,,0.00,WeatherDisplay:10.37,2013-08-31 00:11:00,
2013-08-30 19:16:00,77.9,63.4,28.91,NNE,22,3.3,3.3,61,0.00,CLR,,0.00,WeatherDisplay:10.37,2013-08-31 00:16:00,
2013-08-30 19:21:00,77.5,63.5,28.91,NNE,22,2.6,2.6,62,0.00,CLR,,0.00,WeatherDisplay:10.37,2013-08-31 00:21:00,
2013-08-30 19:26:00,77.2,63.2,28.91,ENE,68,2.3,2.3,62,0.00,CLR,,0.00,WeatherDisplay:10.37,2013-08-31 00:26:00,
2013-08-30 19:31:00,77.0,63.4,28.91,NNW,338,1.4,1.4,63,0.00,CLR,,0.00,WeatherDisplay:10.37,2013-08-31 00:31:00,
2013-08-30 19:36:00,76.6,63.5,28.91,ENE,68,2.3,2.3,64,0.00,CLR,,0.00,WeatherDisplay:10.37,2013-08-31 00:36:00,
2013-08-30 19:41:00,76.3,63.2,28.91,ENE,68,2.3,2.3,64,0.00,CLR,,0.00,WeatherDisplay:10.37,2013-08-31 00:41:00,
2013-08-30 19:47:00,75.9,63.3,28.91,NE,45,2.3,2.3,65,0.00,CLR,,0.00,WeatherDisplay:10.37,2013-08-31 00:47:00,
2013-08-30 19:52:00,75.6,63.0,28.91,NE,45,3.5,3.5,65,0.00,CLR,,0.00,WeatherDisplay:10.37,2013-08-31 00:52:00,
2013-08-30 19:57:00,75.4,63.2,28.91,NE,45,2.3,2.3,66,0.00,CLR,,0.00,WeatherDisplay:10.37,2013-08-31 00:57:00,
2013-08-30 20:02:00,75.0,63.3,28.91,NE,45,2.3,2.3,67,0.00,CLR,,0.00,WeatherDisplay:10.37,2013-08-31 01:02:00,
2013-08-30 20:07:00,74.7,63.0,28.91,ENE,68,2.3,2.3,67,0.00,CLR,,0.00,WeatherDisplay:10.37,2013-08-31 01:07:00,
2013-08-30 20:12:00,74.5,63.2,28.91,NE,45,2.3,2.3,68,0.00,CLR,,0.00,WeatherDisplay:10.37,2013-08-31 01:12:00,
2013-08-30 20:17:00,74.1,62.9,28.91,ENE,68,1.6,1.6,68,0.00,CLR,,0.00,WeatherDisplay:10.37,2013-08-31 01:17:00,
2013-08-30 20:22:00,73.8,62.5,28.91,ENE,68,1.6,1.6,68,0.00,CLR,,0.00,WeatherDisplay:10.37,2013-08-31 01:22:00,
2013-08-30 20:27:00,73.6,62.8,28.91,ENE,68,2.3,2.3,69,0.00,CLR,,0.00,WeatherDisplay:10.37,2013-08-31 01:27:00,
2013-08-30 20:32:00,73.4,62.6,28.91,ENE,68,2.3,2.3,69,0.00,CLR,,0.00,WeatherDisplay:10.37,2013-08-31 01:32:00,
2013-08-30 20:37:00,73.0,62.7,28.91,ENE,68,2.3,2.3,70,0.00,CLR,,0.00,WeatherDisplay:10.37,2013-08-31 01:37:00,
2013-08-30 20:42:00,72.9,62.5,28.91,NE,45,3.5,3.5,70,0.00,CLR,,0.00,WeatherDisplay:10.37,2013-08-31 01:42:00,
2013-08-30 20:47:00,72.5,62.6,28.91,NE,45,3.5,3.5,71,0.00,CLR,,0.00,WeatherDisplay:10.37,2013-08-31 01:47:00,
2013-08-30 20:52:00,72.3,62.4,28.91,ENE,68,3.5,3.5,71,0.00,CLR,,0.00,WeatherDisplay:10.37,2013-08-31 01:52:00,
2013-08-30 20:57:00,72.1,62.2,28.91,NE,45,2.6,2.6,71,0.00,CLR,,0.00,WeatherDisplay:10.37,2013-08-31 01:57:00,
2013-08-30 21:02:00,71.8,62.3,28.91,East,90,2.3,2.3,72,0.00,CLR,,0.00,WeatherDisplay:10.37,2013-08-31 02:02:00,
2013-08-30 21:07:00,71.6,62.5,28.91,NNE,22,0.9,0.0,73,0.00,CLR,,0.00,WeatherDisplay:10.37,2013-08-31 02:07:00,
2013-08-30 21:12:00,71.4,62.7,28.94,NE,45,2.3,2.3,74,0.00,CLR,,0.00,WeatherDisplay:10.37,2013-08-31 02:12:00,
2013-08-30 21:17:00,71.2,62.5,28.94,ENE,68,2.3,2.3,74,0.00,CLR,,0.00,WeatherDisplay:10.37,2013-08-31 02:17:00,
2013-08-30 21:22:00,71.1,62.4,28.94,ENE,68,2.3,2.4,74,0.00,CLR,,0.00,WeatherDisplay:10.37,2013-08-31 02:22:00,
2013-08-30 21:27:00,70.9,62.6,28.94,ENE,68,2.3,2.3,75,0.00,CLR,,0.00,WeatherDisplay:10.37,2013-08-31 02:27:00,
2013-08-30 21:32:00,70.7,62.8,28.94,NE,45,3.5,3.5,76,0.00,CLR,,0.00,WeatherDisplay:10.37,2013-08-31 02:32:00,
2013-08-30 21:37:00,70.5,62.6,28.94,NE,45,2.3,2.3,76,0.00,CLR,,0.00,WeatherDisplay:10.37,2013-08-31 02:37:00,
2013-08-30 21:42:00,70.3,62.4,28.94,NE,45,2.3,2.6,76,0.00,CLR,,0.00,WeatherDisplay:10.37,2013-08-31 02:42:00,
2013-08-30 21:47:00,70.2,62.6,28.94,NE,45,2.6,2.6,77,0.00,CLR,,0.00,WeatherDisplay:10.37,2013-08-31 02:47:00,
2013-08-30 21:52:00,70.0,62.4,28.94,NE,45,3.5,3.5,77,0.00,CLR,,0.00,WeatherDisplay:10.37,2013-08-31 02:52:00,
2013-08-30 21:57:00,69.8,62.6,28.94,NE,45,3.5,3.5,78,0.00,CLR,,0.00,WeatherDisplay:10.37,2013-08-31 02:57:00,
2013-08-30 22:02:00,69.6,62.8,28.94,NE,45,3.6,3.6,79,0.00,CLR,,0.00,WeatherDisplay:10.37,2013-08-31 03:02:00,
2013-08-30 22:07:00,69.4,62.6,28.94,NE,45,3.5,3.5,79,0.00,CLR,,0.00,WeatherDisplay:10.37,2013-08-31 03:07:00,
2013-08-30 22:12:00,69.3,62.8,28.91,ENE,68,4.6,4.6,80,0.00,CLR,,0.00,WeatherDisplay:10.37,2013-08-31 03:12:00,
2013-08-30 22:17:00,69.3,63.2,28.91,ENE,68,3.5,3.5,81,0.00,CLR,,0.00,WeatherDisplay:10.37,2013-08-31 03:17:00,
2013-08-30 22:22:00,69.1,63.0,28.91,NE,45,3.5,3.5,81,0.00,CLR,,0.00,WeatherDisplay:10.37,2013-08-31 03:22:00,
2013-08-30 22:27:00,68.9,62.8,28.91,ENE,68,2.3,2.4,81,0.00,CLR,,0.00,WeatherDisplay:10.37,2013-08-31 03:27:00,
2013-08-30 22:32:00,68.9,62.8,28.91,ENE,68,3.5,3.5,81,0.00,CLR,,0.00,WeatherDisplay:10.37,2013-08-31 03:32:00,
2013-08-30 22:37:00,68.7,62.7,28.91,East,90,3.5,3.5,81,0.00,CLR,,0.00,WeatherDisplay:10.37,2013-08-31 03:37:00,
2013-08-30 22:42:00,68.5,62.8,28.94,ENE,68,4.6,4.6,82,0.00,CLR,,0.00,WeatherDisplay:10.37,2013-08-31 03:42:00,
2013-08-30 22:47:00,68.4,62.6,28.94,NNE,22,4.6,4.6,82,0.00,CLR,,0.00,WeatherDisplay:10.37,2013-08-31 03:47:00,
2013-08-30 22:52:00,68.2,62.8,28.94,ENE,68,3.5,3.5,83,0.00,CLR,,0.00,WeatherDisplay:10.37,2013-08-31 03:52:00,
2013-08-30 22:57:00,68.0,62.6,28.94,NE,45,3.5,3.5,83,0.00,CLR,,0.00,WeatherDisplay:10.37,2013-08-31 03:57:00,
2013-08-30 23:01:00,68.0,62.6,28.94,NE,45,2.3,2.3,83,0.00,CLR,,0.00,WeatherDisplay:10.37,2013-08-31 04:01:00,
2013-08-30 23:02:00,68.0,62.6,28.94,NE,45,2.3,2.3,83,0.00,CLR,,0.00,WeatherDisplay:10.37,2013-08-31 04:02:00,
2013-08-30 23:08:00,67.8,62.8,28.94,NNE,22,3.5,3.5,84,0.00,CLR,,0.00,WeatherDisplay:10.37,2013-08-31 04:08:00,
2013-08-30 23:13:00,67.6,62.6,28.94,ENE,68,2.3,2.3,84,0.00,CLR,,0.00,WeatherDisplay:10.37,2013-08-31 04:13:00,
2013-08-30 23:18:00,67.5,62.8,28.94,ENE,68,2.3,2.3,85,0.00,CLR,,0.00,WeatherDisplay:10.37,2013-08-31 04:18:00,
2013-08-30 23:23:00,67.5,62.8,28.94,NE,45,2.3,2.3,85,0.00,CLR,,0.00,WeatherDisplay:10.37,2013-08-31 04:23:00,
2013-08-30 23:28:00,67.3,62.6,28.91,ENE,68,3.5,3.5,85,0.00,CLR,,0.00,WeatherDisplay:10.37,2013-08-31 04:28:00,
2013-08-30 23:33:00,67.1,62.8,28.91,ENE,68,2.4,2.4,86,0.00,CLR,,0.00,WeatherDisplay:10.37,2013-08-31 04:33:00,
2013-08-30 23:38:00,66.9,62.6,28.91,NE,45,3.5,3.5,86,0.00,CLR,,0.00,WeatherDisplay:10.37,2013-08-31 04:38:00,
2013-08-30 23:43:00,66.7,62.4,28.94,ENE,68,1.1,1.1,86,0.00,CLR,,0.00,WeatherDisplay:10.37,2013-08-31 04:43:00,
2013-08-30 23:48:00,66.6,62.2,28.94,ENE,68,1.4,1.4,86,0.00,CLR,,0.00,WeatherDisplay:10.37,2013-08-31 04:48:00,
2013-08-30 23:53:00,66.6,62.2,28.94,NNE,22,2.3,2.3,86,0.00,CLR,,0.00,WeatherDisplay:10.37,2013-08-31 04:53:00,
2013-08-30 23:58:00,66.4,62.4,28.91,NNE,22,2.3,2.3,87,0.00,CLR,,0.00,WeatherDisplay:10.37,2013-08-31 04:58:00,